Miscellaneous Local Product
Issued by NWS North Platte, NE

Home | Current Version | Previous Version | Graphics & Text | Print | Product List | Glossary On
Versions: 1 2 3 4 5 6 7 8 9 10 11 12 13 14 15 16 17 18 19 20 21 22 23 24 25 26 27 28 29 30 31 32 33 34 35 36 37 38 39 40 41 42 43 44 45 46 47 48 49 50
000
AXUS43 KLBF 270910
MISLBF


WESTERN AND NORTH CENTRAL NEBRASKA HOURLY WEATHER ROUNDUP
NATIONAL WEATHER SERVICE NORTH PLATTE NE
400 AM CDT THU AUG 27 2015

NOTE: "FAIR" INDICATES FEW OR NO CLOUDS BELOW 12,000 FEET WITH NO
SIGNIFICANT WEATHER AND/OR OBSTRUCTIONS TO VISIBILITY.

NOTE: STATIONS NOT REPORTING VARIABLES SUCH AS SKY/WEATHER OR
PRESSURE ARE PROVIDED BY THE NEBRASKA DEPARTMENT OF
ROADS...RAWS...AND APRS NETWORKS...AND ARE NOT UNDER
NATIONAL WEATHER SERVICE QUALITY CONTROL.

...OBSERVATIONS IN AND NEAR THE EASTERN PANHANDLE OF NEBRASKA...

CITY           SKY/WX    TMP DP  RH WIND       PRES   REMARKS
PINE RIDGE     CLOUDY    66  56  70 E12G21    30.02S
CHADRON        CLOUDY    67  61  81 N8        30.03R
ALLIANCE       PTCLDY    68  56  65 N15G22    29.98R
SIDNEY         CLEAR     63  46  54 W10       30.05R
CRESCENT LAKE    N/A     67  47  48 SW6         N/A
BIG SPRINGS      N/A     66  53  63 CALM        N/A
$$

...OBSERVATIONS IN NORTH CENTRAL NEBRASKA...

CITY           SKY/WX    TMP DP  RH WIND       PRES   REMARKS
VALENTINE      CLOUDY    73  68  84 NE6       30.00S
THEDFORD       CLOUDY    71  68  91 SE5       29.97S
AINSWORTH      CLOUDY    73  68  84 N14G26    30.03R
O`NEILL        CLOUDY    68  65  89 SE14G21   29.97F
ORD            CLOUDY    66  63  90 SE5       29.96F
BROKEN BOW     CLOUDY    69  67  93 SE6       29.97S FOG
SPRINGVIEW       N/A     72  67  83 CALM        N/A
SARGENT          N/A     66  64  94 CALM        N/A
CHAMBERS         N/A     68  64  85 E9          N/A
EWING            N/A     67  63  88 S5          N/A
$$

...OBSERVATIONS IN SOUTHWEST NEBRASKA AND FAR NORTHEAST COLORADO...

CITY           SKY/WX    TMP DP  RH WIND       PRES   REMARKS
WRAY           FAIR      72  47  42 W5        30.00S
HOLYOKE        FAIR      63  52  67 W8        30.01R
IMPERIAL       CLEAR     64  51  62 S5        29.98S
OGALLALA       MOCLDY    68  52  56 SW6       29.98R
NORTH PLATTE   CLOUDY    65  63  93 E5        29.96S
MCCOOK         PTCLDY    75  54  47 S5        29.96R
LEXINGTON      CLOUDY    70  68  94 SE6       29.97S
PAXTON           N/A     69  55  60 CALM        N/A
BRADY            N/A     66  64  92 CALM        N/A
CALLAWAY         N/A     67  66  97 SE3         N/A
$$

...OBSERVATIONS IN CENTRAL LINCOLN COUNTY AREA...

CITY           SKY/WX    TMP DP  RH WIND       PRES   REMARKS
N.P. AIRPORT   CLOUDY    65  63  93 E5        29.96S
N.P. DOWNTOWN    N/A     69  63  82 CALM        N/A
N.P. SOUTHEAST   N/A     68  62  82 CALM        N/A
$$

...SOME OBSERVATIONS FROM AROUND THE REGION...

CITY           SKY/WX    TMP DP  RH WIND       PRES   REMARKS
DENVER         MOCLDY    65  46  50 SW7       30.10S
LARAMIE        MOCLDY    56  48  74 NE8       30.29S
CHEYENNE       MOCLDY    66  48  52 NW15G24   30.18R
SCOTTSBLUFF    PTCLDY    62  53  72 W5        30.03R
RAPID CITY     CLOUDY    64  58  80 S12       30.01R
PIERRE         RAIN      68  62  81 SW3       30.00S
WINNER         LGT RAIN  68  61  78 NE18      29.99F
SIOUX FALLS    CLOUDY    64  59  83 S9        30.03F
OMAHA          MOCLDY    66  59  78 SE9       30.05S
GRAND ISLAND   CLOUDY    68  64  87 SE13      29.98F
KANSAS CITY    PTCLDY    64  54  69 SE8       30.09S
WICHITA        MOCLDY    73  68  84 SE10      30.02S
HAYS           PTCLDY    72  59  64 SW6       29.99S
LIBERAL        MOCLDY    70  57  64 S9        30.08F
GOODLAND       MOCLDY    75  52  44 S13       30.02S
$$



USA.gov is the U.S. government's official web portal to all federal, state and local government web resources and services.